Year,Month,Day,Hour,Minute,Value (Times are PST for temperature in C)
2016,04,20,00,00,17.80
2016,04,20,00,01,17.80
2016,04,20,00,02,17.80
2016,04,20,00,03,17.70
2016,04,20,00,04,17.70
2016,04,20,00,05,17.70
2016,04,20,00,06,17.60
2016,04,20,00,07,17.60
2016,04,20,00,08,17.60
2016,04,20,00,09,17.60
2016,04,20,00,10,17.60
2016,04,20,00,11,17.50
2016,04,20,00,12,17.50
2016,04,20,00,13,17.50
2016,04,20,00,14,17.50
2016,04,20,00,15,17.40
2016,04,20,00,16,17.40
2016,04,20,00,17,17.40
2016,04,20,00,18,17.40
2016,04,20,00,19,17.30
2016,04,20,00,20,17.30
2016,04,20,00,21,17.30
2016,04,20,00,22,17.30
2016,04,20,00,23,17.30
2016,04,20,00,24,17.30
2016,04,20,00,25,17.30
2016,04,20,00,26,17.30
2016,04,20,00,27,17.30
2016,04,20,00,28,17.20
2016,04,20,00,29,17.20
2016,04,20,00,30,17.20
2016,04,20,00,31,17.20
2016,04,20,00,32,17.20
2016,04,20,00,33,17.20
2016,04,20,00,34,17.20
2016,04,20,00,35,17.20
2016,04,20,00,36,17.20
2016,04,20,00,37,17.20
2016,04,20,00,38,17.20
2016,04,20,00,39,17.20
2016,04,20,00,40,17.20
2016,04,20,00,41,17.20
2016,04,20,00,42,17.20
2016,04,20,00,43,17.20
2016,04,20,00,44,17.20
2016,04,20,00,45,17.20
2016,04,20,00,46,17.20
2016,04,20,00,47,17.20
2016,04,20,00,48,17.20
2016,04,20,00,49,17.30
2016,04,20,00,50,17.30
2016,04,20,00,51,17.30
2016,04,20,00,52,17.30
2016,04,20,00,53,17.30
2016,04,20,00,54,17.30
2016,04,20,00,55,17.30
2016,04,20,00,56,17.30
2016,04,20,00,57,17.30
2016,04,20,00,58,17.30
2016,04,20,00,59,17.30
2016,04,20,01,00,17.30
2016,04,20,01,01,17.30
2016,04,20,01,02,17.30
2016,04,20,01,03,17.30
2016,04,20,01,04,17.30
2016,04,20,01,05,17.30
2016,04,20,01,06,17.30
2016,04,20,01,07,17.30
2016,04,20,01,08,17.30
2016,04,20,01,09,17.30
2016,04,20,01,10,17.30
2016,04,20,01,11,17.30
2016,04,20,01,12,17.30
2016,04,20,01,13,17.30
2016,04,20,01,14,17.30
2016,04,20,01,15,17.30
2016,04,20,01,16,17.30
2016,04,20,01,17,17.30
2016,04,20,01,18,17.30
2016,04,20,01,19,17.30
2016,04,20,01,20,17.30
2016,04,20,01,21,17.30
2016,04,20,01,22,17.30
2016,04,20,01,23,17.30
2016,04,20,01,24,17.30
2016,04,20,01,25,17.30
2016,04,20,01,26,17.30
2016,04,20,01,27,17.30
2016,04,20,01,28,17.30
2016,04,20,01,29,17.30
2016,04,20,01,30,17.30
2016,04,20,01,31,17.20
2016,04,20,01,32,17.20
2016,04,20,01,33,17.20
2016,04,20,01,34,17.20
2016,04,20,01,35,17.10
2016,04,20,01,36,17.10
2016,04,20,01,37,17.10
2016,04,20,01,38,17.10
2016,04,20,01,39,17.10
2016,04,20,01,40,17.00
2016,04,20,01,41,17.00
2016,04,20,01,42,16.90
2016,04,20,01,43,16.90
2016,04,20,01,44,16.80
2016,04,20,01,45,16.80
2016,04,20,01,46,16.80
2016,04,20,01,47,16.70
2016,04,20,01,48,16.70
2016,04,20,01,49,16.70
2016,04,20,01,50,16.70
2016,04,20,01,51,16.70
2016,04,20,01,52,16.70
2016,04,20,01,53,16.60
2016,04,20,01,54,16.60
2016,04,20,01,55,16.50
2016,04,20,01,56,16.40
2016,04,20,01,57,16.40
2016,04,20,01,58,16.40
2016,04,20,01,59,16.30
2016,04,20,02,00,16.20
2016,04,20,02,01,16.20
2016,04,20,02,02,16.10
2016,04,20,02,03,16.10
2016,04,20,02,04,16.00
2016,04,20,02,05,15.90
2016,04,20,02,06,15.90
2016,04,20,02,07,15.80
2016,04,20,02,08,15.80
2016,04,20,02,09,15.80
2016,04,20,02,10,15.80
2016,04,20,02,11,15.70
2016,04,20,02,12,15.60
2016,04,20,02,13,15.60
2016,04,20,02,14,15.60
2016,04,20,02,15,15.50
2016,04,20,02,16,15.50
2016,04,20,02,17,15.40
2016,04,20,02,18,15.40
2016,04,20,02,19,15.40
2016,04,20,02,20,15.30
2016,04,20,02,21,15.30
2016,04,20,02,22,15.30
2016,04,20,02,23,15.30
2016,04,20,02,24,15.30
2016,04,20,02,25,15.30
2016,04,20,02,26,15.30
2016,04,20,02,27,15.30
2016,04,20,02,28,15.30
2016,04,20,02,29,15.30
2016,04,20,02,30,15.30
2016,04,20,02,31,15.40
2016,04,20,02,32,15.40
2016,04,20,02,33,15.40
2016,04,20,02,34,15.40
2016,04,20,02,35,15.40
2016,04,20,02,36,15.40
2016,04,20,02,37,15.40
2016,04,20,02,38,15.50
2016,04,20,02,39,15.50
2016,04,20,02,40,15.50
2016,04,20,02,41,15.50
2016,04,20,02,42,15.50
2016,04,20,02,43,15.50
2016,04,20,02,44,15.50
2016,04,20,02,45,15.50
2016,04,20,02,46,15.60
2016,04,20,02,47,15.60
2016,04,20,02,48,15.60
2016,04,20,02,49,15.70
2016,04,20,02,50,15.70
2016,04,20,02,51,15.80
2016,04,20,02,52,15.80
2016,04,20,02,53,15.80
2016,04,20,02,54,15.80
2016,04,20,02,55,15.80
2016,04,20,02,56,15.80
2016,04,20,02,57,15.80
2016,04,20,02,58,15.80
2016,04,20,02,59,15.80
2016,04,20,03,00,15.70
2016,04,20,03,01,15.70
2016,04,20,03,02,15.70
2016,04,20,03,03,15.70
2016,04,20,03,04,15.60
2016,04,20,03,05,15.60
2016,04,20,03,06,15.60
2016,04,20,03,07,15.60
2016,04,20,03,08,15.50
2016,04,20,03,09,15.50
2016,04,20,03,10,15.50
2016,04,20,03,11,15.50
2016,04,20,03,12,15.50
2016,04,20,03,13,15.50
2016,04,20,03,14,15.50
2016,04,20,03,15,15.50
2016,04,20,03,16,15.50
2016,04,20,03,17,15.60
2016,04,20,03,18,15.60
2016,04,20,03,19,15.70
2016,04,20,03,20,15.80
2016,04,20,03,21,15.80
2016,04,20,03,22,15.80
2016,04,20,03,23,15.90
2016,04,20,03,24,15.90
2016,04,20,03,25,16.00
2016,04,20,03,26,16.10
2016,04,20,03,27,16.10
2016,04,20,03,28,16.10
2016,04,20,03,29,16.10
2016,04,20,03,30,16.10
2016,04,20,03,31,16.10
2016,04,20,03,32,16.10
2016,04,20,03,33,16.10
2016,04,20,03,34,16.10
2016,04,20,03,35,16.10
2016,04,20,03,36,16.10
2016,04,20,03,37,16.00
2016,04,20,03,38,15.90
2016,04,20,03,39,15.90
2016,04,20,03,40,15.80
2016,04,20,03,41,15.80
2016,04,20,03,42,15.80
2016,04,20,03,43,15.80
2016,04,20,03,44,15.80
2016,04,20,03,45,15.80
2016,04,20,03,46,15.80
2016,04,20,03,47,15.80
2016,04,20,03,48,15.80
2016,04,20,03,49,15.80
2016,04,20,03,50,15.80
2016,04,20,03,51,15.80
2016,04,20,03,52,15.80
2016,04,20,03,53,15.80
2016,04,20,03,54,15.80
2016,04,20,03,55,15.80
2016,04,20,03,56,15.80
2016,04,20,03,57,15.80
2016,04,20,03,58,15.80
2016,04,20,03,59,15.80
2016,04,20,04,00,15.80
2016,04,20,04,01,15.70
2016,04,20,04,02,15.70
2016,04,20,04,03,15.70
2016,04,20,04,04,15.70
2016,04,20,04,05,15.60
2016,04,20,04,06,15.60
2016,04,20,04,07,15.60
2016,04,20,04,08,15.50
2016,04,20,04,09,15.50
2016,04,20,04,10,15.50
2016,04,20,04,11,15.50
2016,04,20,04,12,15.50
2016,04,20,04,13,15.50
2016,04,20,04,14,15.50
2016,04,20,04,15,15.50
2016,04,20,04,16,15.50
2016,04,20,04,17,15.50
2016,04,20,04,18,15.50
2016,04,20,04,19,15.40
2016,04,20,04,20,15.30
2016,04,20,04,21,15.30
2016,04,20,04,22,15.20
2016,04,20,04,23,15.20
2016,04,20,04,24,15.10
2016,04,20,04,25,15.00
2016,04,20,04,26,15.00
2016,04,20,04,27,14.90
2016,04,20,04,28,14.80
2016,04,20,04,29,14.80
2016,04,20,04,30,14.70
2016,04,20,04,31,14.70
2016,04,20,04,32,14.60
2016,04,20,04,33,14.60
2016,04,20,04,34,14.50
2016,04,20,04,35,14.50
2016,04,20,04,36,14.50
2016,04,20,04,37,14.50
2016,04,20,04,38,14.50
2016,04,20,04,39,14.50
2016,04,20,04,40,14.50
2016,04,20,04,41,14.50
2016,04,20,04,42,14.60
2016,04,20,04,43,14.60
2016,04,20,04,44,14.60
2016,04,20,04,45,14.70
2016,04,20,04,46,14.70
2016,04,20,04,47,14.70
2016,04,20,04,48,14.80
2016,04,20,04,49,14.80
2016,04,20,04,50,14.90
2016,04,20,04,51,14.90
2016,04,20,04,52,14.90
2016,04,20,04,53,15.00
2016,04,20,04,54,15.00
2016,04,20,04,55,15.00
2016,04,20,04,56,15.10
2016,04,20,04,57,15.10
2016,04,20,04,58,15.10
2016,04,20,04,59,15.20
2016,04,20,05,00,15.20
2016,04,20,05,01,15.30
2016,04,20,05,02,15.30
2016,04,20,05,03,15.40
2016,04,20,05,04,15.40
2016,04,20,05,05,15.50
2016,04,20,05,06,15.50
2016,04,20,05,07,15.60
2016,04,20,05,08,15.60
2016,04,20,05,09,15.70
2016,04,20,05,10,15.70
2016,04,20,05,11,15.80
2016,04,20,05,12,15.80
2016,04,20,05,13,15.90
2016,04,20,05,14,15.90
2016,04,20,05,15,16.00
2016,04,20,05,16,16.10
2016,04,20,05,17,16.10
2016,04,20,05,18,16.10
2016,04,20,05,19,16.20
2016,04,20,05,20,16.20
2016,04,20,05,21,16.20
2016,04,20,05,22,16.20
2016,04,20,05,23,16.20
2016,04,20,05,24,16.20
2016,04,20,05,25,16.20
2016,04,20,05,26,16.20
2016,04,20,05,27,16.20
2016,04,20,05,28,16.20
2016,04,20,05,29,16.20
2016,04,20,05,30,16.20
2016,04,20,05,31,16.10
2016,04,20,05,32,16.10
2016,04,20,05,33,16.10
2016,04,20,05,34,16.10
2016,04,20,05,35,16.10
2016,04,20,05,36,16.10
2016,04,20,05,37,16.20
2016,04,20,05,38,16.20
2016,04,20,05,39,16.20
2016,04,20,05,40,16.20
2016,04,20,05,41,16.30
2016,04,20,05,42,16.30
2016,04,20,05,43,16.30
2016,04,20,05,44,16.30
2016,04,20,05,45,16.40
2016,04,20,05,46,16.40
2016,04,20,05,47,16.30
2016,04,20,05,48,16.40
2016,04,20,05,49,16.40
2016,04,20,05,50,16.40
2016,04,20,05,51,16.30
2016,04,20,05,52,16.30
2016,04,20,05,53,16.30
2016,04,20,05,54,16.30
2016,04,20,05,55,16.30
2016,04,20,05,56,16.30
2016,04,20,05,57,16.20
2016,04,20,05,58,16.20
2016,04,20,05,59,16.10
2016,04,20,06,00,16.10
2016,04,20,06,01,16.10
2016,04,20,06,02,16.00
2016,04,20,06,03,15.90
2016,04,20,06,04,15.90
2016,04,20,06,05,15.80
2016,04,20,06,06,15.80
2016,04,20,06,07,15.80
2016,04,20,06,08,15.80
2016,04,20,06,09,15.80
2016,04,20,06,10,15.70
2016,04,20,06,11,15.70
2016,04,20,06,12,15.60
2016,04,20,06,13,15.60
2016,04,20,06,14,15.60
2016,04,20,06,15,15.50
2016,04,20,06,16,15.50
2016,04,20,06,17,15.50
2016,04,20,06,18,15.40
2016,04,20,06,19,15.40
2016,04,20,06,20,15.30
2016,04,20,06,21,15.30
2016,04,20,06,22,15.30
2016,04,20,06,23,15.30
2016,04,20,06,24,15.30
2016,04,20,06,25,15.30
2016,04,20,06,26,15.30
2016,04,20,06,27,15.30
2016,04,20,06,28,15.30
2016,04,20,06,29,15.30
2016,04,20,06,30,15.40
2016,04,20,06,31,15.50
2016,04,20,06,32,15.50
2016,04,20,06,33,15.50
2016,04,20,06,34,15.60
2016,04,20,06,35,15.60
2016,04,20,06,36,15.70
2016,04,20,06,37,15.70
2016,04,20,06,38,15.70
2016,04,20,06,39,15.70
2016,04,20,06,40,15.60
2016,04,20,06,41,15.60
2016,04,20,06,42,15.60
2016,04,20,06,43,15.60
2016,04,20,06,44,15.50
2016,04,20,06,45,15.50
2016,04,20,06,46,15.50
2016,04,20,06,47,15.50
2016,04,20,06,48,15.50
2016,04,20,06,49,15.50
2016,04,20,06,50,15.60
2016,04,20,06,51,15.60
2016,04,20,06,52,15.70
2016,04,20,06,53,15.70
2016,04,20,06,54,15.80
2016,04,20,06,55,15.80
2016,04,20,06,56,15.80
2016,04,20,06,57,15.80
2016,04,20,06,58,15.90
2016,04,20,06,59,16.00
2016,04,20,07,00,16.10
2016,04,20,07,01,16.10
2016,04,20,07,02,16.20
2016,04,20,07,03,16.20
2016,04,20,07,04,16.30
2016,04,20,07,05,16.30
2016,04,20,07,06,16.30
2016,04,20,07,07,16.30
2016,04,20,07,08,16.30
2016,04,20,07,09,16.30
2016,04,20,07,10,16.30
2016,04,20,07,11,16.20
2016,04,20,07,12,16.20
2016,04,20,07,13,16.10
2016,04,20,07,14,16.10
2016,04,20,07,15,16.10
2016,04,20,07,16,16.10
2016,04,20,07,17,16.00
2016,04,20,07,18,15.90
2016,04,20,07,19,15.90
2016,04,20,07,20,15.90
2016,04,20,07,21,15.90
2016,04,20,07,22,15.90
2016,04,20,07,23,15.90
2016,04,20,07,24,15.90
2016,04,20,07,25,15.90
2016,04,20,07,26,15.90
2016,04,20,07,27,15.90
2016,04,20,07,28,15.90
2016,04,20,07,29,15.90
2016,04,20,07,30,15.90
2016,04,20,07,31,15.90
2016,04,20,07,32,15.90
2016,04,20,07,33,15.90
2016,04,20,07,34,15.90
2016,04,20,07,35,15.90
2016,04,20,07,36,15.90
2016,04,20,07,37,15.90
2016,04,20,07,38,15.90
2016,04,20,07,39,15.90
2016,04,20,07,40,15.90
2016,04,20,07,41,15.90
2016,04,20,07,42,15.90
2016,04,20,07,43,15.90
2016,04,20,07,44,15.90
2016,04,20,07,45,15.90
2016,04,20,07,46,15.90
2016,04,20,07,47,15.90
2016,04,20,07,48,15.90
2016,04,20,07,49,15.90
2016,04,20,07,50,15.90
2016,04,20,07,51,15.90
2016,04,20,07,52,15.90
2016,04,20,07,53,16.00
2016,04,20,07,54,16.10
2016,04,20,07,55,16.10
2016,04,20,07,56,16.10
2016,04,20,07,57,16.10
2016,04,20,07,58,16.10
2016,04,20,07,59,16.10
2016,04,20,08,00,16.10
2016,04,20,08,01,16.10
2016,04,20,08,02,16.10
2016,04,20,08,03,16.10
2016,04,20,08,04,16.10
2016,04,20,08,05,16.10
2016,04,20,08,06,16.10
2016,04,20,08,07,16.10
2016,04,20,08,08,16.10
2016,04,20,08,09,16.20
2016,04,20,08,10,16.30
2016,04,20,08,11,16.30
2016,04,20,08,12,16.40
2016,04,20,08,13,16.40
2016,04,20,08,14,16.40
2016,04,20,08,15,16.40
2016,04,20,08,16,16.40
2016,04,20,08,17,16.40
2016,04,20,08,18,16.40
2016,04,20,08,19,16.40
2016,04,20,08,20,16.40
2016,04,20,08,21,16.40
2016,04,20,08,22,16.40
2016,04,20,08,23,16.40
2016,04,20,08,24,16.50
2016,04,20,08,25,16.60
2016,04,20,08,26,16.70
2016,04,20,08,27,16.70
2016,04,20,08,28,16.80
2016,04,20,08,29,16.90
2016,04,20,08,30,17.00
2016,04,20,08,31,17.10
2016,04,20,08,32,17.20
2016,04,20,08,33,17.30
2016,04,20,08,34,17.30
2016,04,20,08,35,17.30
2016,04,20,08,36,17.30
2016,04,20,08,37,17.30
2016,04,20,08,38,17.40
2016,04,20,08,39,17.50
2016,04,20,08,40,17.50
2016,04,20,08,41,17.50
2016,04,20,08,42,17.60
2016,04,20,08,43,17.70
2016,04,20,08,44,17.70
2016,04,20,08,45,17.70
2016,04,20,08,46,17.70
2016,04,20,08,47,17.70
2016,04,20,08,48,17.70
2016,04,20,08,49,17.70
2016,04,20,08,50,17.70
2016,04,20,08,51,17.80
2016,04,20,08,52,17.80
2016,04,20,08,53,17.80
2016,04,20,08,54,17.80
2016,04,20,08,55,17.80
2016,04,20,08,56,17.90
2016,04,20,08,57,17.90
2016,04,20,08,58,17.80
2016,04,20,08,59,17.80
2016,04,20,09,00,17.80
2016,04,20,09,01,17.80
2016,04,20,09,02,17.80
2016,04,20,09,03,17.80
2016,04,20,09,04,17.80
2016,04,20,09,05,17.80
2016,04,20,09,06,17.80
2016,04,20,09,07,17.90
2016,04,20,09,08,17.90
2016,04,20,09,09,18.00
2016,04,20,09,10,18.10
2016,04,20,09,11,18.20
2016,04,20,09,12,18.20
2016,04,20,09,13,18.20
2016,04,20,09,14,18.20
2016,04,20,09,15,18.20
2016,04,20,09,16,18.20
2016,04,20,09,17,18.20
2016,04,20,09,18,18.20
2016,04,20,09,19,18.20
2016,04,20,09,20,18.20
2016,04,20,09,21,18.20
2016,04,20,09,22,18.30
2016,04,20,09,23,18.30
2016,04,20,09,24,18.40
2016,04,20,09,25,18.40
2016,04,20,09,26,18.40
2016,04,20,09,27,18.40
2016,04,20,09,28,18.40
2016,04,20,09,29,18.40
2016,04,20,09,30,18.50
2016,04,20,09,31,18.50
2016,04,20,09,32,18.50
2016,04,20,09,33,18.50
2016,04,20,09,34,18.50
2016,04,20,09,35,18.50
2016,04,20,09,36,18.50
2016,04,20,09,37,18.50
2016,04,20,09,38,18.60
2016,04,20,09,39,18.60
2016,04,20,09,40,18.60
2016,04,20,09,41,18.70
2016,04,20,09,42,18.70
2016,04,20,09,43,18.70
2016,04,20,09,44,18.80
2016,04,20,09,45,18.70
2016,04,20,09,46,18.70
2016,04,20,09,47,18.80
2016,04,20,09,48,18.80
2016,04,20,09,49,18.90
2016,04,20,09,50,18.90
2016,04,20,09,51,18.90
2016,04,20,09,52,18.90
2016,04,20,09,53,19.00
2016,04,20,09,54,19.10
2016,04,20,09,55,19.10
2016,04,20,09,56,19.10
2016,04,20,09,57,19.10
2016,04,20,09,58,19.20
2016,04,20,09,59,19.20
2016,04,20,10,00,19.20
2016,04,20,10,01,19.20
2016,04,20,10,02,19.30
2016,04,20,10,03,19.30
2016,04,20,10,04,19.30
2016,04,20,10,05,19.30
2016,04,20,10,06,19.20
2016,04,20,10,07,19.10
2016,04,20,10,08,19.10
2016,04,20,10,09,19.10
2016,04,20,10,10,19.10
2016,04,20,10,11,19.10
2016,04,20,10,12,19.20
2016,04,20,10,13,19.20
2016,04,20,10,14,19.20
2016,04,20,10,15,19.20
2016,04,20,10,16,19.10
2016,04,20,10,17,19.10
2016,04,20,10,18,19.20
2016,04,20,10,19,19.20
2016,04,20,10,20,19.20
2016,04,20,10,21,19.20
2016,04,20,10,22,19.20
2016,04,20,10,23,19.30
2016,04,20,10,24,19.30
2016,04,20,10,25,19.30
2016,04,20,10,26,19.40
2016,04,20,10,27,19.40
2016,04,20,10,28,19.40
2016,04,20,10,29,19.40
2016,04,20,10,30,19.30
2016,04,20,10,31,19.30
2016,04,20,10,32,19.30
2016,04,20,10,33,19.20
2016,04,20,10,34,19.30
2016,04,20,10,35,19.30
2016,04,20,10,36,19.40
2016,04,20,10,37,19.40
2016,04,20,10,38,19.50
2016,04,20,10,39,19.60
2016,04,20,10,40,19.70
2016,04,20,10,41,19.70
2016,04,20,10,42,19.80
2016,04,20,10,43,19.70
2016,04,20,10,44,19.60
2016,04,20,10,45,19.60
2016,04,20,10,46,19.50
2016,04,20,10,47,19.40
2016,04,20,10,48,19.40
2016,04,20,10,49,19.30
2016,04,20,10,50,19.40
2016,04,20,10,51,19.50
2016,04,20,10,52,19.60
2016,04,20,10,53,19.70
2016,04,20,10,54,19.80
2016,04,20,10,55,19.90
2016,04,20,10,56,19.90
2016,04,20,10,57,20.00
2016,04,20,10,58,20.10
2016,04,20,10,59,20.00
2016,04,20,11,00,19.90
2016,04,20,11,01,19.90
2016,04,20,11,02,19.90
2016,04,20,11,03,19.90
2016,04,20,11,04,20.00
2016,04,20,11,05,20.10
2016,04,20,11,06,20.20
2016,04,20,11,07,20.20
2016,04,20,11,08,20.10
2016,04,20,11,09,20.00
2016,04,20,11,10,19.90
2016,04,20,11,11,19.90
2016,04,20,11,12,19.90
2016,04,20,11,13,19.80
2016,04,20,11,14,19.80
2016,04,20,11,15,19.80
2016,04,20,11,16,19.80
2016,04,20,11,17,19.80
2016,04,20,11,18,19.80
2016,04,20,11,19,19.80
2016,04,20,11,20,19.80
2016,04,20,11,21,19.70
2016,04,20,11,22,19.70
2016,04,20,11,23,19.70
2016,04,20,11,24,19.70
2016,04,20,11,25,19.80
2016,04,20,11,26,19.90
2016,04,20,11,27,19.90
2016,04,20,11,28,19.90
2016,04,20,11,29,20.10
2016,04,20,11,30,20.20
2016,04,20,11,31,20.20
2016,04,20,11,32,20.30
2016,04,20,11,33,20.30
2016,04,20,11,34,20.40
2016,04,20,11,35,20.40
2016,04,20,11,36,20.50
2016,04,20,11,37,20.40
2016,04,20,11,38,20.40
2016,04,20,11,39,20.50
2016,04,20,11,40,20.60
2016,04,20,11,41,20.70
2016,04,20,11,42,20.70
2016,04,20,11,43,20.70
2016,04,20,11,44,20.80
2016,04,20,11,45,20.80
2016,04,20,11,46,20.80
2016,04,20,11,47,20.90
2016,04,20,11,48,20.90
2016,04,20,11,49,20.90
2016,04,20,11,50,20.90
2016,04,20,11,51,21.00
2016,04,20,11,52,21.00
2016,04,20,11,53,21.10
2016,04,20,11,54,21.20
2016,04,20,11,55,21.20
2016,04,20,11,56,21.20
2016,04,20,11,57,21.30
2016,04,20,11,58,21.30
2016,04,20,11,59,21.30
2016,04,20,12,00,21.40
2016,04,20,12,01,21.50
2016,04,20,12,02,21.60
2016,04,20,12,03,21.60
2016,04,20,12,04,21.50
2016,04,20,12,05,21.40
2016,04,20,12,06,21.40
2016,04,20,12,07,21.40
2016,04,20,12,08,21.40
2016,04,20,12,09,21.50
2016,04,20,12,10,21.60
2016,04,20,12,11,21.50
2016,04,20,12,12,21.40
2016,04,20,12,13,21.40
2016,04,20,12,14,21.30
2016,04,20,12,15,21.30
2016,04,20,12,16,21.30
2016,04,20,12,17,21.30
2016,04,20,12,18,21.30
2016,04,20,12,19,21.30
2016,04,20,12,20,21.20
2016,04,20,12,21,21.10
2016,04,20,12,22,21.10
2016,04,20,12,23,21.20
2016,04,20,12,24,21.30
2016,04,20,12,25,21.30
2016,04,20,12,26,21.40
2016,04,20,12,27,21.50
2016,04,20,12,28,21.60
2016,04,20,12,29,21.60
2016,04,20,12,30,21.60
2016,04,20,12,31,21.60
2016,04,20,12,32,21.60
2016,04,20,12,33,21.60
2016,04,20,12,34,21.60
2016,04,20,12,35,21.70
2016,04,20,12,36,21.70
2016,04,20,12,37,21.70
2016,04,20,12,38,21.70
2016,04,20,12,39,21.80
2016,04,20,12,40,21.90
2016,04,20,12,41,21.90
2016,04,20,12,42,22.00
2016,04,20,12,43,22.00
2016,04,20,12,44,22.10
2016,04,20,12,45,22.20
2016,04,20,12,46,22.20
2016,04,20,12,47,22.20
2016,04,20,12,48,22.20
2016,04,20,12,49,22.10
2016,04,20,12,50,22.00
2016,04,20,12,51,21.90
2016,04,20,12,52,21.80
2016,04,20,12,53,21.80
2016,04,20,12,54,21.80
2016,04,20,12,55,21.80
2016,04,20,12,56,21.90
2016,04,20,12,57,21.90
2016,04,20,12,58,22.00
2016,04,20,12,59,22.10
2016,04,20,13,00,22.10
2016,04,20,13,01,22.10
2016,04,20,13,02,22.10
2016,04,20,13,03,22.20
2016,04,20,13,04,22.30
2016,04,20,13,05,22.30
2016,04,20,13,06,22.40
2016,04,20,13,07,22.50
2016,04,20,13,08,22.60
2016,04,20,13,09,22.60
2016,04,20,13,10,22.60
2016,04,20,13,11,22.60
2016,04,20,13,12,22.60
2016,04,20,13,13,22.60
2016,04,20,13,14,22.50
2016,04,20,13,15,22.50
2016,04,20,13,16,22.50
2016,04,20,13,17,22.50
2016,04,20,13,18,22.50
2016,04,20,13,19,22.50
2016,04,20,13,20,22.50
2016,04,20,13,21,22.60
2016,04,20,13,22,22.70
2016,04,20,13,23,22.70
2016,04,20,13,24,22.70
2016,04,20,13,25,22.80
2016,04,20,13,26,22.80
2016,04,20,13,27,22.90
2016,04,20,13,28,22.80
2016,04,20,13,29,22.80
2016,04,20,13,30,22.80
2016,04,20,13,31,22.80
2016,04,20,13,32,22.80
2016,04,20,13,33,22.70
2016,04,20,13,34,22.70
2016,04,20,13,35,22.80
2016,04,20,13,36,22.90
2016,04,20,13,37,23.00
2016,04,20,13,38,23.10
2016,04,20,13,39,23.20
2016,04,20,13,40,23.00
2016,04,20,13,41,22.90
2016,04,20,13,42,22.90
2016,04,20,13,43,22.90
2016,04,20,13,44,22.80
2016,04,20,13,45,22.80
2016,04,20,13,46,22.70
2016,04,20,13,47,22.60
2016,04,20,13,48,22.50
2016,04,20,13,49,22.40
2016,04,20,13,50,22.30
2016,04,20,13,51,22.30
2016,04,20,13,52,22.30
2016,04,20,13,53,22.20
2016,04,20,13,54,22.20
2016,04,20,13,55,22.20
2016,04,20,13,56,22.30
2016,04,20,13,57,22.30
2016,04,20,13,58,22.30
2016,04,20,13,59,22.40
2016,04,20,14,00,22.40
2016,04,20,14,01,22.50
2016,04,20,14,02,22.60
2016,04,20,14,03,22.60
2016,04,20,14,04,22.70
2016,04,20,14,05,22.80
2016,04,20,14,06,22.90
2016,04,20,14,07,22.90
2016,04,20,14,08,22.80
2016,04,20,14,09,22.80
2016,04,20,14,10,22.80
2016,04,20,14,11,22.80
2016,04,20,14,12,22.90
2016,04,20,14,13,22.90
2016,04,20,14,14,22.80
2016,04,20,14,15,22.70
2016,04,20,14,16,22.70
2016,04,20,14,17,22.70
2016,04,20,14,18,22.70
2016,04,20,14,19,22.70
2016,04,20,14,20,22.80
2016,04,20,14,21,22.80
2016,04,20,14,22,22.80
2016,04,20,14,23,22.80
2016,04,20,14,24,22.80
2016,04,20,14,25,22.90
2016,04,20,14,26,22.90
2016,04,20,14,27,22.90
2016,04,20,14,28,22.90
2016,04,20,14,29,22.90
2016,04,20,14,30,22.90
2016,04,20,14,31,23.00
2016,04,20,14,32,23.10
2016,04,20,14,33,23.20
2016,04,20,14,34,23.30
2016,04,20,14,35,23.30
2016,04,20,14,36,23.40
2016,04,20,14,37,23.60
2016,04,20,14,38,23.60
2016,04,20,14,39,23.60
2016,04,20,14,40,23.50
2016,04,20,14,41,23.50
2016,04,20,14,42,23.60
2016,04,20,14,43,23.60
2016,04,20,14,44,23.50
2016,04,20,14,45,23.40
2016,04,20,14,46,23.50
2016,04,20,14,47,23.60
2016,04,20,14,48,23.60
2016,04,20,14,49,23.70
2016,04,20,14,50,23.70
2016,04,20,14,51,23.70
2016,04,20,14,52,23.80
2016,04,20,14,53,23.90
2016,04,20,14,54,24.00
2016,04,20,14,55,24.10
2016,04,20,14,56,24.20
2016,04,20,14,57,24.10
2016,04,20,14,58,24.00
2016,04,20,14,59,23.90
2016,04,20,15,00,23.70
2016,04,20,15,01,23.70
2016,04,20,15,02,23.70
2016,04,20,15,03,23.70
2016,04,20,15,04,23.70
2016,04,20,15,05,23.70
2016,04,20,15,06,23.70
2016,04,20,15,07,23.80
2016,04,20,15,08,23.90
2016,04,20,15,09,24.10
2016,04,20,15,10,24.10
2016,04,20,15,11,24.10
2016,04,20,15,12,24.30
2016,04,20,15,13,24.40
2016,04,20,15,14,24.30
2016,04,20,15,15,24.40
2016,04,20,15,16,24.50
2016,04,20,15,17,24.50
2016,04,20,15,18,24.50
2016,04,20,15,19,24.50
2016,04,20,15,20,24.50
2016,04,20,15,21,24.40
2016,04,20,15,22,24.40
2016,04,20,15,23,24.30
2016,04,20,15,24,24.30
2016,04,20,15,25,24.30
2016,04,20,15,26,24.30
2016,04,20,15,27,24.40
2016,04,20,15,28,24.50
2016,04,20,15,29,24.50
2016,04,20,15,30,24.50
2016,04,20,15,31,24.50
2016,04,20,15,32,24.50
2016,04,20,15,33,24.60
2016,04,20,15,34,24.60
2016,04,20,15,35,24.70
2016,04,20,15,36,24.80
2016,04,20,15,37,24.80
2016,04,20,15,38,24.80
2016,04,20,15,39,24.80
2016,04,20,15,40,24.70
2016,04,20,15,41,24.70
2016,04,20,15,42,24.70
2016,04,20,15,43,24.60
2016,04,20,15,44,24.60
2016,04,20,15,45,24.60
2016,04,20,15,46,24.60
2016,04,20,15,47,24.70
2016,04,20,15,48,24.70
2016,04,20,15,49,24.70
2016,04,20,15,50,24.80
2016,04,20,15,51,24.80
2016,04,20,15,52,24.80
2016,04,20,15,53,24.70
2016,04,20,15,54,24.60
2016,04,20,15,55,24.50
2016,04,20,15,56,24.50
2016,04,20,15,57,24.50
2016,04,20,15,58,24.40
2016,04,20,15,59,24.50
2016,04,20,16,00,24.50
2016,04,20,16,01,24.50
2016,04,20,16,02,24.60
2016,04,20,16,03,24.60
2016,04,20,16,04,24.60
2016,04,20,16,05,24.70
2016,04,20,16,06,24.70
2016,04,20,16,07,24.70
2016,04,20,16,08,24.80
2016,04,20,16,09,24.90
2016,04,20,16,10,24.90
2016,04,20,16,11,25.00
2016,04,20,16,12,25.00
2016,04,20,16,13,24.90
2016,04,20,16,14,24.90
2016,04,20,16,15,24.90
2016,04,20,16,16,24.90
2016,04,20,16,17,24.90
2016,04,20,16,18,24.80
2016,04,20,16,19,24.80
2016,04,20,16,20,24.70
2016,04,20,16,21,24.70
2016,04,20,16,22,24.70
2016,04,20,16,23,24.80
2016,04,20,16,24,24.80
2016,04,20,16,25,24.70
2016,04,20,16,26,24.70
2016,04,20,16,27,24.80
2016,04,20,16,28,24.80
2016,04,20,16,29,24.80
2016,04,20,16,30,24.80
2016,04,20,16,31,24.70
2016,04,20,16,32,24.50
2016,04,20,16,33,24.40
2016,04,20,16,34,24.30
2016,04,20,16,35,24.20
2016,04,20,16,36,24.00
2016,04,20,16,37,23.90
2016,04,20,16,38,23.90
2016,04,20,16,39,24.10
2016,04,20,16,40,24.10
2016,04,20,16,41,24.10
2016,04,20,16,42,24.20
2016,04,20,16,43,24.30
2016,04,20,16,44,24.40
2016,04,20,16,45,24.40
2016,04,20,16,46,24.40
2016,04,20,16,47,24.30
2016,04,20,16,48,24.30
2016,04,20,16,49,24.30
2016,04,20,16,50,24.30
2016,04,20,16,51,24.30
2016,04,20,16,52,24.30
2016,04,20,16,53,24.30
2016,04,20,16,54,24.30
2016,04,20,16,55,24.30
2016,04,20,16,56,24.20
2016,04,20,16,57,24.20
2016,04,20,16,58,24.10
2016,04,20,16,59,24.20
2016,04,20,17,00,24.20
2016,04,20,17,01,24.20
2016,04,20,17,02,24.20
2016,04,20,17,03,24.20
2016,04,20,17,04,24.20
2016,04,20,17,05,24.20
2016,04,20,17,06,24.00
2016,04,20,17,07,23.80
2016,04,20,17,08,23.70
2016,04,20,17,09,23.70
2016,04,20,17,10,23.70
2016,04,20,17,11,23.70
2016,04,20,17,12,23.60
2016,04,20,17,13,23.30
2016,04,20,17,14,23.10
2016,04,20,17,15,23.00
2016,04,20,17,16,22.90
2016,04,20,17,17,22.80
2016,04,20,17,18,22.80
2016,04,20,17,19,22.80